This demonstration page uses our WeatherBlox Daily Observations layout. Learn more.

Left ArrowRight Arrow

38.88101, -77.10428

Hourly Observations for September 16, 2022

Temp ( °F °C ) Dew Point ( °F °C ) Humidity (%) Winds ( mph kmh ) Pressure ( in mb ) Visibility ( mi km ) Precip ( " mm )
12:52 am 00:52 Clear 65 18.3 56 13.3 73 73 N 5 7 30.22 1023 10 16 0.00 0.00
1:52 am 01:52 Clear 63 17.2 56 13.3 78 78 N 3 6 30.22 1023 10 16 0.00 0.00
2:52 am 02:52 Clear 62 16.7 56 13.3 80 80 N 5 7 30.21 1023 10 16 0.00 0.00
3:52 am 03:52 Clear 61 16.1 56 13.3 83 83 N 6 9 30.21 1023 10 16 0.00 0.00
4:52 am 04:52 Clear 60 15.6 55 12.8 83 83 NNW 5 7 30.21 1023 10 16 0.00 0.00
5:52 am 05:52 Clear 60 15.6 53 11.7 78 78 N 6 9 30.21 1023 10 16 0.00 0.00
6:52 am 06:52 Mostly Sunny 59 15 54 12.2 83 83 N 5 7 30.22 1023 10 16 0.00 0.00
7:52 am 07:52 Mostly Sunny 62 16.7 56 13.3 80 80 N 3 6 30.24 1024 10 16 0.00 0.00
8:52 am 08:52 Mostly Sunny 66 18.9 57 13.9 73 73 N 5 7 30.24 1024 10 16 0.00 0.00
9:52 am 09:52 Mostly Sunny 68 20 55 12.8 63 63 Calm 30.25 1024 10 16 0.00 0.00
10:52 am 10:52 Mostly Sunny 72 22.2 54 12.2 53 53 ENE 3 6 30.25 1024 10 16 0.00 0.00
11:52 am 11:52 Sunny 75 23.9 55 12.8 50 50 E 5 7 30.23 1024 10 16 0.00 0.00
12:52 pm 12:52 Sunny 77 25 56 13.3 48 48 ENE 5 7 30.22 1023 10 16 0.00 0.00
1:52 pm 13:52 Sunny 79 26.1 57 13.9 47 47 VRB 3 6 30.20 1023 10 16 0.00 0.00
2:52 pm 14:52 Mostly Sunny 81 27.2 52 11.1 37 37 NNE 8 13 30.18 1022 10 16 0.00 0.00
3:52 pm 15:52 Mostly Sunny 81 27.2 53 11.7 38 38 ENE 5 7 30.16 1021 10 16 0.00 0.00
4:52 pm 16:52 Mostly Sunny 81 27.2 54 12.2 39 39 N 6 9 30.15 1021 10 16 0.00 0.00
5:52 pm 17:52 Mostly Sunny 79 26.1 53 11.7 41 41 N 7 11 30.16 1021 10 16 0.00 0.00
6:52 pm 18:52 Mostly Sunny 77 25 54 12.2 45 45 Calm 30.16 1021 10 16 0.00 0.00
7:52 pm 19:52 Clear 76 24.4 56 13.3 50 50 WSW 3 6 30.17 1022 10 16 0.00 0.00
8:52 pm 20:52 Clear 72 22.2 57 13.9 59 59 S 5 7 30.19 1022 10 16 0.00 0.00
9:52 pm 21:52 Clear 73 22.8 59 15 61 61 Calm 30.20 1023 10 16 0.00 0.00
10:52 pm 22:52 Clear 70 21.1 62 16.7 76 76 SSE 3 6 30.20 1023 9 14 0.00 0.00
11:52 pm 23:52 Clear 69 20.6 61 16.1 75 75 Calm 30.21 1023 9 14 0.00 0.00

Powered by AerisWeather